STARLINK-11203, 60117

Orbit data source: Space-Track

STARLINK-11203, 60117 is a payload satellite owned by SpaceX/Seattle (US) in LEO that was launched on Mon, 24 Jun 2024 UTC via an FALCON 9 launch vehicle from the Air Force Western Test Range (AFWTR). Payload-class satellites include a variety of spacecraft equipped with specific instruments for various scientific and technological missions. These include communications satellites like Starlink; space stations such as the ISS; scientific satellites like the Hubble; Earth observation satellites from companies like Planet Labs, Umbra, and HawkEye 360; GPS; miniature CubeSats for education and research; and military/defense satellites.

Loading next visibility...
Identifier
60117, 2024-118E
Orbit
LEO
Country
Flag of USUS
Related business
Manufacturer
SpaceX/Seattle
Mission
Operational Commercial Communications
Bus & Motor
STARLINK V2MD, Unknown motor
Mass
960 kg wet, ~910 kg dry
Launch date (UTC)
2024-06-24 (2 years ago)
Launch vehicle
FALCON 9
Launch site
Air Force Western Test Range (AFWTR)
Object type
Payload
Rocket body
Debris
Shape & HBR
Box + 2 Pan, 18.1 m
Radar Cross Section
36.964 m², Large (>1 m²)

Expand to show TLE details & history
Last TLE update: 1 day ago

TLE from 1 day ago
0 STARLINK-11203
1 60117U 24118E   26125.87450293 -.00000157  00000-0  35597-5 0  9993
2 60117  53.1584 299.4477 0000828  70.6776 289.4332 15.69699758106975
Epoch: 2026-05-05T20:59Z
TLE epoch observation values (Epoch: 2026-05-05T20:59:17.053Z)
Latitude
0.00005°
Longitude
120.8836°
Altitude
360.485 km
Speed
7.694 km/s
True Right ascension
19h 57m 47s
True Declination
0° 00' 00"
Sunlit
Object was in daylight at epoch
Visualization orbit readout
Latitude
Unknown
Longitude
Unknown
Altitude
Unknown
Speed
Unknown
Apparent Right ascension
Unknown
Apparent Declination
Unknown
Sunlit
N/A
Visualization observer readout
Local Sidereal Time
14:44:32
Azimuth
Unknown
Elevation
Unknown
Doppler factor
Unknown
Orbital elements
Apogee altitude
360.575 km
Perigee altitude
359.459 km
Semi-major axis
6,738.154 km
Eccentricity
0.00008
Inclination
53.1584°
RAAN
299.4477°
Arg. of periapsis
70.6776°
True anomaly
289.42425°
Mean anomaly
289.4332°
Eccentric anomaly
289.42873°
Mean motion
3.92403 °/min
Orbital period
91.74 mins
BSTAR
0.0000035597
Loading maneuver chart data...
Computing Atmospheric mass density...
Loading historical data...
Loading historical data...
Loading historical data...
Loading historical data...
Loading historical data...
Loading historical data...
Loading historical data...

Documentation

Showing up to 5 results
|